Time,TemperatureF,DewpointF,PressureIn,WindDirection,WindDirectionDegrees,WindSpeedMPH,WindSpeedGustMPH,Humidity,HourlyPrecipIn,Conditions,Clouds,dailyrainin,SoftwareType,DateUTC
2013-08-06 00:07:00,54.9,51.0,29.95,ENE,77,0.0,4.0,87,0.00,,,0.00,weatherlink.com 1.10,2013-08-06 07:07:00,
2013-08-06 00:22:00,54.9,51.0,29.95,NE,56,2.0,4.0,87,0.00,,,0.00,weatherlink.com 1.10,2013-08-06 07:22:00,
2013-08-06 00:37:00,55.0,51.0,29.95,ENE,68,0.0,4.0,87,0.00,,,0.00,weatherlink.com 1.10,2013-08-06 07:37:00,
2013-08-06 00:52:00,55.0,51.0,29.95,ENE,78,2.0,3.0,87,0.00,,,0.00,weatherlink.com 1.10,2013-08-06 07:52:00,
2013-08-06 01:07:00,55.0,52.0,29.95,ENE,66,3.0,3.0,88,0.00,,,0.00,weatherlink.com 1.10,2013-08-06 08:07:00,
2013-08-06 01:22:00,54.9,52.0,29.95,ENE,60,2.0,4.0,88,0.00,,,0.00,weatherlink.com 1.10,2013-08-06 08:22:00,
2013-08-06 01:37:00,54.9,52.0,29.94,East,97,0.0,4.0,88,0.00,,,0.00,weatherlink.com 1.10,2013-08-06 08:37:00,
2013-08-06 01:52:00,54.9,52.0,29.94,ENE,65,0.0,4.0,88,0.00,,,0.00,weatherlink.com 1.10,2013-08-06 08:52:00,
2013-08-06 02:07:00,54.9,52.0,29.94,East,84,1.0,4.0,88,0.00,,,0.00,weatherlink.com 1.10,2013-08-06 09:07:00,
2013-08-06 02:22:00,54.9,52.0,29.95,NNE,30,2.0,2.0,88,0.00,,,0.00,weatherlink.com 1.10,2013-08-06 09:22:00,
2013-08-06 02:37:00,54.8,51.0,29.94,ENE,65,1.0,3.0,88,0.00,,,0.00,weatherlink.com 1.10,2013-08-06 09:37:00,
2013-08-06 02:52:00,54.8,51.0,29.95,ENE,69,1.0,3.0,88,0.00,,,0.00,weatherlink.com 1.10,2013-08-06 09:52:00,
2013-08-06 03:07:00,54.6,51.0,29.94,ENE,76,1.0,5.0,88,0.00,,,0.00,weatherlink.com 1.10,2013-08-06 10:07:00,
2013-08-06 03:22:00,54.5,51.0,29.94,East,79,0.0,3.0,88,0.00,,,0.00,weatherlink.com 1.10,2013-08-06 10:22:00,
2013-08-06 03:37:00,54.4,51.0,29.95,ENE,65,0.0,3.0,89,0.00,,,0.00,weatherlink.com 1.10,2013-08-06 10:37:00,
2013-08-06 03:52:00,54.2,51.0,29.94,ENE,73,1.0,4.0,88,0.00,,,0.00,weatherlink.com 1.10,2013-08-06 10:52:00,
2013-08-06 04:07:00,54.3,51.0,29.94,ENE,76,2.0,4.0,88,0.00,,,0.00,weatherlink.com 1.10,2013-08-06 11:07:00,
2013-08-06 04:22:00,54.3,51.0,29.94,ENE,68,2.0,3.0,89,0.00,,,0.00,weatherlink.com 1.10,2013-08-06 11:22:00,
2013-08-06 04:37:00,54.2,51.0,29.94,ENE,60,2.0,5.0,88,0.00,,,0.00,weatherlink.com 1.10,2013-08-06 11:37:00,
2013-08-06 04:52:00,54.2,51.0,29.94,NE,53,2.0,6.0,88,0.00,,,0.00,weatherlink.com 1.10,2013-08-06 11:52:00,
2013-08-06 05:07:00,54.2,51.0,29.94,ENE,65,1.0,3.0,88,0.00,,,0.00,weatherlink.com 1.10,2013-08-06 12:07:00,
2013-08-06 05:22:00,54.3,51.0,29.94,East,84,1.0,3.0,88,0.00,,,0.00,weatherlink.com 1.10,2013-08-06 12:22:00,
2013-08-06 05:37:00,54.2,51.0,29.94,East,90,1.0,3.0,89,0.00,,,0.00,weatherlink.com 1.10,2013-08-06 12:37:00,
2013-08-06 05:52:00,54.1,51.0,29.95,East,84,0.0,2.0,89,0.00,,,0.00,weatherlink.com 1.10,2013-08-06 12:52:00,
2013-08-06 06:07:00,54.1,51.0,29.95,East,92,0.0,3.0,89,0.00,,,0.00,weatherlink.com 1.10,2013-08-06 13:07:00,
2013-08-06 06:23:00,54.0,51.0,29.95,ENE,57,1.0,6.0,89,0.00,,,0.00,weatherlink.com 1.10,2013-08-06 13:23:00,
2013-08-06 06:38:00,54.0,51.0,29.96,ENE,75,3.0,5.0,88,0.00,,,0.00,weatherlink.com 1.10,2013-08-06 13:38:00,
2013-08-06 06:53:00,54.1,51.0,29.96,North,6,2.0,3.0,89,0.00,,,0.00,weatherlink.com 1.10,2013-08-06 13:53:00,
2013-08-06 07:08:00,54.3,51.0,29.96,East,83,0.0,2.0,89,0.00,,,0.00,weatherlink.com 1.10,2013-08-06 14:08:00,
2013-08-06 07:23:00,54.5,51.0,29.97,ENE,73,2.0,5.0,87,0.00,,,0.00,weatherlink.com 1.10,2013-08-06 14:23:00,
2013-08-06 07:38:00,54.6,51.0,29.97,East,84,1.0,4.0,87,0.00,,,0.00,weatherlink.com 1.10,2013-08-06 14:38:00,
2013-08-06 07:53:00,54.6,51.0,29.97,East,86,1.0,5.0,87,0.00,,,0.00,weatherlink.com 1.10,2013-08-06 14:53:00,
2013-08-06 08:08:00,54.7,51.0,29.98,NE,51,1.0,6.0,87,0.00,,,0.00,weatherlink.com 1.10,2013-08-06 15:08:00,
2013-08-06 08:23:00,55.5,51.0,29.98,East,96,3.0,5.0,86,0.00,,,0.00,weatherlink.com 1.10,2013-08-06 15:23:00,
2013-08-06 08:38:00,56.0,52.0,29.98,East,98,0.0,6.0,85,0.00,,,0.00,weatherlink.com 1.10,2013-08-06 15:38:00,
2013-08-06 08:53:00,56.4,52.0,29.98,WNW,302,0.0,5.0,85,0.00,,,0.00,weatherlink.com 1.10,2013-08-06 15:53:00,
2013-08-06 09:08:00,57.2,52.0,29.99,NE,48,3.0,5.0,82,0.00,,,0.00,weatherlink.com 1.10,2013-08-06 16:08:00,
2013-08-06 09:23:00,58.7,53.0,29.99,NE,43,1.0,5.0,80,0.00,,,0.00,weatherlink.com 1.10,2013-08-06 16:23:00,
2013-08-06 09:38:00,59.9,53.0,29.99,SSE,167,1.0,7.0,77,0.00,,,0.00,weatherlink.com 1.10,2013-08-06 16:38:00,
2013-08-06 09:53:00,61.3,53.0,29.99,ENE,64,0.0,4.0,74,0.00,,,0.00,weatherlink.com 1.10,2013-08-06 16:53:00,
2013-08-06 10:08:00,62.3,54.0,29.99,SSE,157,1.0,5.0,73,0.00,,,0.00,weatherlink.com 1.10,2013-08-06 17:08:00,
2013-08-06 10:23:00,64.0,54.0,29.99,SE,139,2.0,7.0,71,0.00,,,0.00,weatherlink.com 1.10,2013-08-06 17:23:00,
2013-08-06 10:38:00,64.8,54.0,29.99,ESE,115,1.0,6.0,68,0.00,,,0.00,weatherlink.com 1.10,2013-08-06 17:38:00,
2013-08-06 10:53:00,66.1,55.0,29.99,SSW,193,0.0,6.0,67,0.00,,,0.00,weatherlink.com 1.10,2013-08-06 17:53:00,
2013-08-06 11:08:00,68.1,55.0,29.98,NE,54,2.0,8.0,63,0.00,,,0.00,weatherlink.com 1.10,2013-08-06 18:08:00,
2013-08-06 11:23:00,68.5,55.0,29.98,ESE,120,3.0,4.0,62,0.00,,,0.00,weatherlink.com 1.10,2013-08-06 18:23:00,
2013-08-06 11:38:00,69.6,54.0,29.98,ENE,75,2.0,7.0,58,0.00,,,0.00,weatherlink.com 1.10,2013-08-06 18:38:00,
2013-08-06 11:53:00,69.8,55.0,29.98,ESE,117,2.0,5.0,59,0.00,,,0.00,weatherlink.com 1.10,2013-08-06 18:53:00,
2013-08-06 12:08:00,70.0,55.0,29.98,NE,54,1.0,11.0,59,0.00,,,0.00,weatherlink.com 1.10,2013-08-06 19:08:00,
2013-08-06 12:23:00,70.6,55.0,29.97,ENE,70,1.0,6.0,59,0.00,,,0.00,weatherlink.com 1.10,2013-08-06 19:23:00,
2013-08-06 12:38:00,70.8,55.0,29.97,NE,54,2.0,8.0,58,0.00,,,0.00,weatherlink.com 1.10,2013-08-06 19:38:00,
2013-08-06 12:53:00,70.6,56.0,29.97,SSE,150,0.0,9.0,60,0.00,,,0.00,weatherlink.com 1.10,2013-08-06 19:53:00,
2013-08-06 13:08:00,71.7,55.0,29.97,ENE,69,6.0,8.0,57,0.00,,,0.00,weatherlink.com 1.10,2013-08-06 20:08:00,
2013-08-06 13:24:00,72.7,55.0,29.96,East,99,1.0,8.0,55,0.00,,,0.00,weatherlink.com 1.10,2013-08-06 20:24:00,
2013-08-06 13:39:00,73.4,56.0,29.96,ENE,63,2.0,7.0,54,0.00,,,0.00,weatherlink.com 1.10,2013-08-06 20:39:00,
2013-08-06 13:54:00,74.3,56.0,29.96,NNE,29,1.0,6.0,53,0.00,,,0.00,weatherlink.com 1.10,2013-08-06 20:54:00,
2013-08-06 14:09:00,73.7,56.0,29.95,NE,56,6.0,12.0,54,0.00,,,0.00,weatherlink.com 1.10,2013-08-06 21:09:00,
2013-08-06 14:24:00,72.9,56.0,29.95,ENE,76,6.0,7.0,55,0.00,,,0.00,weatherlink.com 1.10,2013-08-06 21:24:00,
2013-08-06 14:39:00,71.9,56.0,29.95,NE,52,3.0,10.0,57,0.00,,,0.00,weatherlink.com 1.10,2013-08-06 21:39:00,
2013-08-06 14:54:00,71.2,55.0,29.95,East,79,3.0,8.0,57,0.00,,,0.00,weatherlink.com 1.10,2013-08-06 21:54:00,
2013-08-06 15:09:00,70.5,55.0,29.95,ENE,65,2.0,9.0,59,0.00,,,0.00,weatherlink.com 1.10,2013-08-06 22:09:00,
2013-08-06 15:24:00,70.5,55.0,29.95,ESE,116,0.0,10.0,59,0.00,,,0.00,weatherlink.com 1.10,2013-08-06 22:24:00,
2013-08-06 15:39:00,68.4,55.0,29.95,ENE,65,1.0,14.0,62,0.00,,,0.00,weatherlink.com 1.10,2013-08-06 22:39:00,
2013-08-06 15:54:00,69.4,56.0,29.95,NE,56,4.0,7.0,62,0.00,,,0.00,weatherlink.com 1.10,2013-08-06 22:54:00,
2013-08-06 16:09:00,71.1,56.0,29.94,NE,53,4.0,8.0,59,0.00,,,0.00,weatherlink.com 1.10,2013-08-06 23:09:00,
2013-08-06 16:24:00,71.0,55.0,29.95,ENE,63,5.0,6.0,58,0.00,,,0.00,weatherlink.com 1.10,2013-08-06 23:24:00,
2013-08-06 16:39:00,69.4,55.0,29.94,NE,35,2.0,8.0,60,0.00,,,0.00,weatherlink.com 1.10,2013-08-06 23:39:00,
2013-08-06 16:54:00,70.3,55.0,29.95,NE,34,2.0,7.0,58,0.00,,,0.00,weatherlink.com 1.10,2013-08-06 23:54:00,
2013-08-06 17:09:00,68.3,54.0,29.95,ENE,68,2.0,9.0,61,0.00,,,0.00,weatherlink.com 1.10,2013-08-07 00:09:00,
2013-08-06 17:24:00,67.5,54.0,29.95,ENE,72,6.0,7.0,63,0.00,,,0.00,weatherlink.com 1.10,2013-08-07 00:24:00,
2013-08-06 17:39:00,66.2,54.0,29.95,NNE,19,5.0,14.0,66,0.00,,,0.00,weatherlink.com 1.10,2013-08-07 00:39:00,
2013-08-06 17:54:00,65.4,54.0,29.95,ENE,67,3.0,9.0,67,0.00,,,0.00,weatherlink.com 1.10,2013-08-07 00:54:00,
2013-08-06 18:09:00,64.4,54.0,29.95,NNE,33,3.0,10.0,69,0.00,,,0.00,weatherlink.com 1.10,2013-08-07 01:09:00,
2013-08-06 18:24:00,63.7,54.0,29.95,ENE,70,3.0,9.0,71,0.00,,,0.00,weatherlink.com 1.10,2013-08-07 01:24:00,
2013-08-06 18:39:00,63.7,54.0,29.95,ENE,77,5.0,8.0,71,0.00,,,0.00,weatherlink.com 1.10,2013-08-07 01:39:00,
2013-08-06 18:54:00,63.1,54.0,29.95,East,84,2.0,6.0,72,0.00,,,0.00,weatherlink.com 1.10,2013-08-07 01:54:00,
2013-08-06 19:09:00,62.2,54.0,29.95,ENE,58,2.0,8.0,75,0.00,,,0.00,weatherlink.com 1.10,2013-08-07 02:09:00,
2013-08-06 19:24:00,61.6,54.0,29.96,South,176,2.0,7.0,76,0.00,,,0.00,weatherlink.com 1.10,2013-08-07 02:24:00,
2013-08-06 19:39:00,61.3,54.0,29.96,ENE,72,3.0,8.0,77,0.00,,,0.00,weatherlink.com 1.10,2013-08-07 02:39:00,
2013-08-06 19:54:00,61.1,54.0,29.96,NE,49,2.0,5.0,78,0.00,,,0.00,weatherlink.com 1.10,2013-08-07 02:54:00,
2013-08-06 20:09:00,60.6,54.0,29.96,East,88,3.0,9.0,79,0.00,,,0.00,weatherlink.com 1.10,2013-08-07 03:09:00,
2013-08-06 20:24:00,60.6,54.0,29.96,East,86,4.0,7.0,79,0.00,,,0.00,weatherlink.com 1.10,2013-08-07 03:24:00,
2013-08-06 20:39:00,60.3,54.0,29.97,East,79,2.0,7.0,80,0.00,,,0.00,weatherlink.com 1.10,2013-08-07 03:39:00,
2013-08-06 20:54:00,60.2,54.0,29.97,East,89,0.0,6.0,80,0.00,,,0.00,weatherlink.com 1.10,2013-08-07 03:54:00,
2013-08-06 21:09:00,60.2,54.0,29.98,NE,43,2.0,6.0,81,0.00,,,0.00,weatherlink.com 1.10,2013-08-07 04:09:00,
2013-08-06 21:24:00,60.0,54.0,29.98,East,86,1.0,6.0,81,0.00,,,0.00,weatherlink.com 1.10,2013-08-07 04:24:00,
2013-08-06 21:39:00,59.9,54.0,29.98,ENE,70,0.0,5.0,82,0.00,,,0.00,weatherlink.com 1.10,2013-08-07 04:39:00,
2013-08-06 21:54:00,59.9,54.0,29.99,ENE,75,1.0,3.0,81,0.00,,,0.00,weatherlink.com 1.10,2013-08-07 04:54:00,
2013-08-06 22:09:00,59.8,54.0,29.99,SE,127,0.0,5.0,82,0.00,,,0.00,weatherlink.com 1.10,2013-08-07 05:09:00,
2013-08-06 22:24:00,59.7,54.0,29.99,ENE,70,2.0,6.0,82,0.00,,,0.00,weatherlink.com 1.10,2013-08-07 05:24:00,
2013-08-06 22:39:00,59.6,54.0,30.00,East,96,2.0,5.0,83,0.00,,,0.00,weatherlink.com 1.10,2013-08-07 05:39:00,
2013-08-06 22:54:00,59.5,55.0,29.99,ENE,72,2.0,4.0,84,0.00,,,0.00,weatherlink.com 1.10,2013-08-07 05:54:00,
2013-08-06 23:09:00,59.3,55.0,30.00,ENE,75,0.0,4.0,85,0.00,,,0.00,weatherlink.com 1.10,2013-08-07 06:09:00,
2013-08-06 23:24:00,58.9,55.0,30.00,East,90,1.0,3.0,88,0.00,,,0.00,weatherlink.com 1.10,2013-08-07 06:24:00,
2013-08-06 23:39:00,58.7,55.0,30.00,ENE,69,0.0,2.0,88,0.00,,,0.00,weatherlink.com 1.10,2013-08-07 06:39:00,
2013-08-06 23:54:00,58.5,55.0,30.00,ENE,65,0.0,3.0,89,0.00,,,0.00,weatherlink.com 1.10,2013-08-07 06:54:00,